CW1988 Weather Reports


Display with metric or nautical units.
time (UTC)temp
F
wind
direction
speed
MPH
gust
MPH
rain 1hr
in
rain 24hr
in
rain mn
in
humidity
%
barometer
mb
20260504213741 77 182 1.0 1.0 0.00 0.00 0.00 34 997.3
20260504213237 77 182 1.0 2.0 0.00 0.00 0.00 32 997.5
20260504212734 77 182 1.0 1.0 0.00 0.00 0.00 33 997.6
20260504212225 77 182 0.0 0.0 0.00 0.00 0.00 34 997.4
20260504211723 77 182 1.0 1.0 0.00 0.00 0.00 35 997.6
20260504211219 77 182 1.0 1.0 0.00 0.00 0.00 34 997.7
20260504210717 77 182 1.0 2.0 0.00 0.00 0.00 34 997.6
20260504210213 77 182 0.0 1.0 0.00 0.00 0.00 35 997.7
20260504205710 77 182 0.0 0.0 0.00 0.00 0.00 34 997.7
20260504205207 77 182 2.0 2.0 0.00 0.00 0.00 34 997.7
20260504204706 77 182 0.0 0.0 0.00 0.00 0.00 37 998.0
20260504204204 77 182 1.0 2.0 0.00 0.00 0.00 34 998.1
20260504203702 77 182 1.0 1.0 0.00 0.00 0.00 35 998.1
20260504203200 77 182 2.0 2.0 0.00 0.00 0.00 34 998.0
20260504202654 77 182 2.0 3.0 0.00 0.00 0.00 36 998.1
20260504202152 77 182 1.0 2.0 0.00 0.00 0.00 34 998.0
20260504201648 77 182 2.0 2.0 0.00 0.00 0.00 36 997.8
20260504201146 77 182 1.0 2.0 0.00 0.00 0.00 34 998.4
20260504200643 77 182 1.0 2.0 0.00 0.00 0.00 34 998.5
20260504200139 78 182 1.0 2.0 0.00 0.00 0.00 34 998.2
20260504195635 77 182 0.0 0.0 0.00 0.00 0.00 36 998.4
20260504195132 77 182 0.0 1.0 0.00 0.00 0.00 35 998.6
20260504194629 77 182 1.0 1.0 0.00 0.00 0.00 33 998.5
20260504194125 77 182 1.0 2.0 0.00 0.00 0.00 32 998.6
20260504193621 77 182 2.0 3.0 0.00 0.00 0.00 33 998.5
20260504193120 77 182 1.0 2.0 0.00 0.00 0.00 36 998.6
20260504192617 77 182 0.0 0.0 0.00 0.00 0.00 36 998.5
20260504192115 77 182 4.0 6.0 0.00 0.00 0.00 31 998.7
20260504191613 76 182 0.0 1.0 0.00 0.00 0.00 36 998.7
20260504191109 76 182 1.0 1.0 0.00 0.00 0.00 36 998.6
20260504190605 76 182 2.0 3.0 0.00 0.00 0.00 34 998.6
20260504185559 76 182 1.0 1.0 0.00 0.00 0.00 34 998.6
20260504185055 76 182 1.0 1.0 0.00 0.00 0.00 35 998.9
20260504184551 76 182 1.0 1.0 0.00 0.00 0.00 34 998.8
20260504184046 75 182 1.0 2.0 0.00 0.00 0.00 35 998.8
20260504183544 75 182 1.0 1.0 0.00 0.00 0.00 35 998.8
20260504183042 76 182 0.0 1.0 0.00 0.00 0.00 35 998.8
20260504182539 76 182 0.0 0.0 0.00 0.00 0.00 36 998.8
20260504182036 75 182 1.0 1.0 0.00 0.00 0.00 34 998.8
20260504181532 75 182 0.0 1.0 0.00 0.00 0.00 37 999.0
20260504181031 76 182 1.0 1.0 0.00 0.00 0.00 35 999.0
20260504180529 75 182 0.0 1.0 0.00 0.00 0.00 36 999.0
20260504180028 75 182 1.0 1.0 0.00 0.00 0.00 35 999.1
20260504175525 75 182 1.0 1.0 0.00 0.00 0.00 34 999.3
20260504175022 75 182 1.0 1.0 0.00 0.00 0.00 34 999.0
20260504174519 75 182 1.0 1.0 0.00 0.00 0.00 35 999.4
20260504174016 75 182 0.0 0.0 0.00 0.00 0.00 36 999.2
20260504173513 75 182 0.0 0.0 0.00 0.00 0.00 34 999.3
20260504173011 75 182 1.0 1.0 0.00 0.00 0.00 33 999.5
20260504172506 75 182 1.0 1.0 0.00 0.00 0.00 34 999.4
20260504172003 75 182 1.0 2.0 0.00 0.00 0.00 34 999.6
20260504171500 74 182 1.0 1.0 0.00 0.00 0.00 35 999.4
20260504170957 75 182 1.0 1.0 0.00 0.00 0.00 33 999.7
20260504170453 74 182 0.0 1.0 0.00 0.00 0.00 34 999.7
20260504160413 74 182 1.0 2.0 0.00 0.00 0.00 35 1000.6
20260504150837 77 181 1.0 1.0 0.00 0.00 0.00 33 1001.2
20260504150333 77 181 0.0 1.0 0.00 0.00 0.00 32 1001.4
20260504141303 72 181 0.0 0.0 0.00 0.00 0.00 39 1001.9
20260504140800 71 180 0.0 1.0 0.00 0.00 0.00 40 1001.9
20260504140255 69 180 0.0 0.0 0.00 0.00 0.00 41 1002.0
20260504130724 62 180 0.0 0.0 0.00 0.00 0.00 52 1002.8
20260504130220 59 181 0.0 0.0 0.00 0.00 0.00 55 1002.6
20260504120144 52 181 0.0 0.0 0.00 0.00 0.00 67 1002.9
20260504110612 46 182 0.0 0.0 0.00 0.00 0.00 76 1002.9
20260504110108 46 182 0.0 0.0 0.00 0.00 0.00 76 1002.8
20260504100534 44 182 0.0 0.0 0.00 0.00 0.00 81 1003.0
20260504081927 46 182 0.0 0.0 0.00 0.00 0.00 81 1004.2
20260504081424 46 182 0.0 0.0 0.00 0.00 0.00 81 1004.2
20260504080920 46 182 0.0 0.0 0.00 0.00 0.00 81 1004.2
20260504080417 46 182 0.0 0.0 0.00 0.00 0.00 81 1004.3
20260504070345 48 182 0.0 0.0 0.00 0.00 0.00 79 1004.8
20260504050732 52 181 0.0 0.0 0.00 0.00 0.00 71 1005.4
20260504050230 52 181 0.0 0.0 0.00 0.00 0.00 71 1005.5
20260504045727 52 181 0.0 0.0 0.00 0.00 0.00 70 1005.6
20260504045227 52 181 0.0 0.0 0.00 0.00 0.00 70 1005.5
20260504044725 52 181 0.0 0.0 0.00 0.00 0.00 70 1005.5
20260504044222 53 181 0.0 0.0 0.00 0.00 0.00 69 1005.5
20260504043719 53 181 0.0 0.0 0.00 0.00 0.00 70 1005.5
20260504043215 52 181 0.0 0.0 0.00 0.00 0.00 70 1005.4
20260504042713 52 181 0.0 0.0 0.00 0.00 0.00 70 1005.6
20260504042209 53 181 0.0 0.0 0.00 0.00 0.00 69 1005.4
20260504041705 53 181 0.0 0.0 0.00 0.00 0.00 69 1005.4
20260504041201 53 181 0.0 0.0 0.00 0.00 0.00 69 1005.6
20260504040658 53 181 0.0 0.0 0.00 0.00 0.00 69 1005.5
20260504040155 53 181 0.0 0.0 0.00 0.00 0.00 68 1005.8
20260504035652 53 181 0.0 0.0 0.00 0.00 0.00 68 1005.6
20260504035149 53 181 0.0 0.0 0.00 0.00 0.00 67 1005.5
20260504034647 53 181 0.0 0.0 0.00 0.00 0.00 67 1005.7
20260504034143 54 181 0.0 0.0 0.00 0.00 0.00 66 1005.8
20260504033641 54 181 0.0 0.0 0.00 0.00 0.00 67 1005.8
20260504033138 54 181 0.0 0.0 0.00 0.00 0.00 66 1005.8
20260504032635 54 181 0.0 0.0 0.00 0.00 0.00 65 1005.9
20260504032132 55 181 0.0 0.0 0.00 0.00 0.00 65 1005.9
20260504031629 55 181 0.0 0.0 0.00 0.00 0.00 65 1005.8
20260504031125 55 181 0.0 0.0 0.00 0.00 0.00 64 1005.8
20260504030622 56 181 0.0 0.0 0.00 0.00 0.00 63 1005.8
20260504030119 56 181 0.0 0.0 0.00 0.00 0.00 63 1005.9
20260504025616 56 181 0.0 0.0 0.00 0.00 0.00 61 1005.9
20260504025113 56 181 0.0 0.0 0.00 0.00 0.00 61 1005.8
20260504024610 56 181 0.0 0.0 0.00 0.00 0.00 61 1005.6
20260504024107 56 181 0.0 0.0 0.00 0.00 0.00 61 1005.7
20260504023603 56 181 0.0 0.0 0.00 0.00 0.00 61 1005.7
20260504023059 57 181 0.0 0.0 0.00 0.00 0.00 61 1005.8
20260504022555 57 181 0.0 0.0 0.00 0.00 0.00 61 1005.7
20260504022051 57 181 0.0 0.0 0.00 0.00 0.00 60 1005.5
20260504021549 57 181 0.0 0.0 0.00 0.00 0.00 60 1005.4
20260504021046 57 181 0.0 0.0 0.00 0.00 0.00 60 1005.6
20260504020543 58 181 0.0 0.0 0.00 0.00 0.00 59 1005.6
20260504020039 58 181 0.0 0.0 0.00 0.00 0.00 58 1005.5
20260504015536 58 181 0.0 0.0 0.00 0.00 0.00 58 1005.5
20260504015032 58 181 0.0 0.0 0.00 0.00 0.00 58 1005.5
20260504014528 59 181 0.0 0.0 0.00 0.00 0.00 57 1005.4
20260504014025 59 181 0.0 0.0 0.00 0.00 0.00 56 1005.3
20260504013523 59 181 0.0 0.0 0.00 0.00 0.00 56 1005.3
20260504013020 59 181 0.0 0.0 0.00 0.00 0.00 55 1005.3
20260504012517 60 181 0.0 0.0 0.00 0.00 0.00 55 1005.6
20260504012015 60 181 0.0 0.0 0.00 0.00 0.00 54 1005.6
20260504011511 60 181 0.0 0.0 0.00 0.00 0.00 54 1005.6
20260504011008 61 181 0.0 0.0 0.00 0.00 0.00 54 1005.4
20260504010503 61 181 0.0 0.0 0.00 0.00 0.00 53 1005.4
20260504005959 61 181 0.0 0.0 0.00 0.00 0.00 53 1005.4
20260504005456 62 181 0.0 0.0 0.00 0.00 0.00 52 1005.5
20260504004954 62 181 0.0 0.0 0.00 0.00 0.00 52 1005.3
20260504004451 63 181 0.0 0.0 0.00 0.00 0.00 51 1005.3
20260504003948 63 181 0.0 0.0 0.00 0.00 0.00 50 1005.2
20260504003444 64 181 0.0 0.0 0.00 0.00 0.00 50 1005.4
20260504002941 64 181 0.0 0.0 0.00 0.00 0.00 49 1005.3
20260504002438 64 181 0.0 0.0 0.00 0.00 0.00 48 1005.3
20260504001936 65 181 0.0 0.0 0.00 0.00 0.00 49 1005.2
20260504001433 65 181 0.0 0.0 0.00 0.00 0.00 48 1005.2
20260504000929 65 181 0.0 0.0 0.00 0.00 0.00 48 1005.2
20260504000426 65 181 0.0 1.0 0.00 0.00 0.00 47 1005.2
20260503235924 65 181 0.0 0.0 0.00 0.00 0.00 46 1005.4
20260503235422 65 181 0.0 0.0 0.00 0.00 0.00 46 1005.2
20260503234919 66 181 0.0 0.0 0.00 0.00 0.00 47 1005.1
20260503234416 66 181 0.0 0.0 0.00 0.00 0.00 46 1005.1
20260503233914 66 181 0.0 0.0 0.00 0.00 0.00 47 1005.0
20260503233410 66 181 0.0 0.0 0.00 0.00 0.00 46 1005.1
20260503232907 66 181 0.0 0.0 0.00 0.00 0.00 45 1005.3
20260503232404 66 181 1.0 1.0 0.00 0.00 0.00 47 1005.4
20260503231902 66 181 0.0 0.0 0.00 0.00 0.00 47 1005.3
20260503231359 66 181 0.0 1.0 0.00 0.00 0.00 47 1005.3
20260503230855 66 181 0.0 0.0 0.00 0.00 0.00 48 1005.1
20260503230352 66 181 2.0 2.0 0.00 0.00 0.00 47 1005.4
20260503225850 66 181 0.0 0.0 0.00 0.00 0.00 48 1005.5
20260503225345 66 181 0.0 1.0 0.00 0.00 0.00 47 1005.4
20260503224842 66 181 0.0 0.0 0.00 0.00 0.00 47 1005.6
20260503224339 66 181 0.0 0.0 0.00 0.00 0.00 47 1005.4
20260503223837 66 181 0.0 0.0 0.00 0.00 0.00 47 1005.5
20260503223334 66 181 0.0 0.0 0.00 0.00 0.00 48 1005.6
20260503222830 66 181 0.0 0.0 0.00 0.00 0.00 47 1005.8
20260503222328 66 181 0.0 0.0 0.00 0.00 0.00 47 1005.5
20260503221826 66 181 0.0 1.0 0.00 0.00 0.00 48 1005.6
20260503221325 66 181 0.0 1.0 0.00 0.00 0.00 49 1005.6
20260503220815 66 181 0.0 0.0 0.00 0.00 0.00 46 1005.7
20260503220312 66 181 1.0 1.0 0.00 0.00 0.00 47 1005.8
20260503215809 66 181 1.0 2.0 0.00 0.00 0.00 45 1005.8
20260503215306 66 181 1.0 1.0 0.00 0.00 0.00 46 1005.8
20260503214804 66 181 1.0 2.0 0.00 0.00 0.00 46 1005.9
20260503214301 66 181 0.0 1.0 0.00 0.00 0.00 48 1006.0